EHI
0 0 0 0 0 0 0 0 0 0 0 0 0 1 3 5 6 7 8 11 15 19 21 20 16 14 18 24 26 27 31 34 35 35 33 28 17 6 1 0 0 0 0 0
0 0 0 0 0 0 0 0 0 0 0 0 0 2 4 6 6 6 9 13 18 22 24 21 17 17 20 22 22 23 29 36 39 39 38 34 21 8 2 0 0 0 0 1
0 0 0 0 0 0 0 0 0 0 0 0 0 1 4 7 8 8 8 11 16 19 20 18 17 19 21 18 18 20 26 35 41 41 41 37 26 15 7 2 1 0 0 1
0 0 0 0 0 0 0 0 0 0 0 0 0 1 3 6 8 8 7 6 8 11 12 12 13 15 16 14 14 16 20 27 34 35 37 35 29 20 11 5 2 0 0 1
0 0 0 0 0 0 0 0 0 0 0 0 0 1 3 5 7 7 6 3 4 6 7 7 7 8 9 9 9 10 13 18 22 24 26 26 22 15 9 5 2 0 0 0
0 0 0 0 0 0 0 0 0 0 0 0 0 1 3 4 5 5 4 2 2 4 4 4 3 3 2 3 4 5 8 11 12 12 12 11 9 7 5 3 2 0 0 0
0 0 0 0 0 0 0 0 0 0 0 0 0 0 1 2 3 3 2 1 1 2 2 2 1 1 0 0 1 2 4 5 5 4 3 2 2 3 3 2 1 0 0 0
0 0 0 0 0 0 0 0 0 0 0 0 0 0 0 0 1 2 1 0 0 1 1 1 0 0 0 0 0 0 1 1 1 0 0 0 0 1 1 1 0 0 0 0
0 0 0 0 0 0 0 0 0 0 0 0 0 0 0 0 0 1 1 0 0 0 0 0 0 0 0 0 0 0 0 0 0 0 0 0 0 0 0 0 0 0 0 0
0 0 0 0 0 0 0 0 0 0 0 0 0 0 0 0 0 0 0 0 0 0 0 0 0 0 0 0 0 0 0 0 0 0 0 0 0 0 0 0 0 0 0 0
0 0 0 0 0 0 0 0 0 0 0 0 0 0 0 0 0 0 0 0 0 0 0 0 0 0 0 0 0 0 0 0 0 0 0 0 0 0 0 0 0 0 0 0
0 0 0 0 0 0 0 0 0 0 0 0 0 0 0 0 0 0 0 0 0 0 0 0 0 0 0 0 0 0 0 0 0 0 0 0 0 0 0 0 0 0 0 0
0 0 0 0 0 0 0 0 0 0 0 0 0 0 0 0 0 0 0 0 0 0 0 0 0 0 0 0 0 0 0 0 0 0 0 0 0 0 0 0 0 0 0 0
0 0 0 0 0 0 0 0 0 0 0 0 0 0 0 0 0 0 0 0 0 0 0 0 0 0 0 0 0 0 0 0 0 0 0 0 0 0 0 0 0 0 0 0
0 0 0 0 0 0 0 0 0 0 0 0 0 0 0 0 0 0 0 0 0 0 0 0 0 0 0 0 0 0 0 0 0 0 0 0 0 0 0 0 0 0 0 0
0 0 0 0 0 0 0 0 0 0 0 0 0 0 0 0 0 0 0 0 0 0 0 0 0 0 0 0 0 0 0 0 0 0 0 0 0 0 0 0 0 0 0 0
0 0 0 0 0 0 0 0 0 0 0 0 0 0 0 0 0 0 0 0 0 0 0 0 0 0 0 0 0 0 0 0 0 0 0 0 0 0 0 0 0 0 0 0
0 0 0 0 0 0 0 0 0 0 0 0 0 0 0 0 0 0 0 0 0 0 0 0 0 0 0 0 0 0 0 0 0 0 0 0 0 0 0 0 0 0 0 0
0 0 0 0 0 0 0 0 0 0 0 0 0 0 0 0 0 0 0 0 0 0 0 0 0 0 0 0 0 0 0 0 0 0 0 0 0 0 0 0 0 0 0 0
0 0 0 0 0 0 0 0 0 0 0 0 0 0 0 0 0 0 0 0 0 0 0 0 0 0 0 0 0 0 0 0 0 0 0 0 0 0 0 0 0 0 0 0
0 0 0 0 0 0 0 0 0 0 0 0 0 0 0 0 0 0 0 0 0 0 0 0 0 0 0 0 0 0 0 0 0 0 0 0 0 0 0 0 0 0 0 0
0 0 0 0 0 0 0 0 0 0 0 0 0 0 0 0 0 0 0 0 0 0 0 0 0 0 0 0 0 0 0 0 0 0 0 0 0 0 0 0 0 0 0 0
0 0 0 0 0 0 0 0 0 0 0 0 0 0 0 0 0 0 0 0 0 0 0 0 0 0 0 0 0 0 0 0 0 0 0 0 0 0 0 0 0 0 0 0
0 0 0 0 0 0 0 0 0 0 0 0 0 0 0 0 0 0 0 0 0 0 0 0 0 0 0 0 0 0 0 0 0 0 0 0 0 0 0 0 0 0 0 0
0 0 0 0 0 0 0 0 0 0 0 0 0 0 0 0 0 0 0 0 0 0 0 0 0 0 0 0 0 0 0 0 0 0 0 0 0 0 0 0 0 0 0 0
0 0 0 0 0 0 0 0 0 0 0 0 0 0 0 0 0 0 0 0 0 0 0 0 0 0 0 0 0 0 0 0 0 0 0 0 0 0 0 0 0 0 0 0
Wind_Speed
3 4 3 6 7 5 1 1 4 6 3 1 1 2 6 3 3 2 2 2 2 1 2 4 4 2 1 3 5 6 7 7 7 6 6 5 4 3 2 2 2 3 4 5
4 2 7 5 4 3 3 3 4 5 2 2 3 5 7 7 6 6 5 5 5 6 7 7 7 6 4 1 1 3 5 5 7 6 4 3 4 3 3 3 3 3 3 4
5 5 3 4 3 3 3 4 4 3 4 3 4 5 7 8 10 11 11 10 10 10 9 10 10 9 9 7 4 1 2 4 5 6 5 5 5 3 2 3 3 5 5 5
4 5 3 3 3 4 4 6 5 3 1 2 2 2 4 5 9 11 11 11 11 12 11 11 11 11 11 9 6 4 3 3 4 5 6 7 5 4 4 4 5 6 7 6
5 3 4 5 6 7 7 3 2 1 2 1 3 5 2 3 6 8 10 11 11 11 11 12 12 11 11 10 9 7 7 6 6 5 5 5 5 5 6 7 8 6 6 7
6 4 5 6 5 6 4 3 4 4 4 2 2 4 2 3 3 5 8 10 10 11 11 12 11 12 12 12 11 10 11 11 10 9 8 8 9 9 9 8 7 6 6 6
5 4 4 3 1 1 4 5 4 4 4 1 2 6 4 4 6 7 8 9 10 10 11 12 13 13 13 13 13 12 13 13 13 13 12 11 10 10 10 9 8 7 6 6
2 5 3 3 5 5 4 8 7 4 3 1 4 5 5 6 8 9 9 9 10 10 11 12 13 12 13 13 13 13 14 14 14 14 13 12 11 9 9 10 9 9 7 7
2 4 4 1 2 6 5 3 5 6 3 3 3 4 4 5 7 7 8 9 9 10 11 12 12 12 13 13 13 13 14 15 15 14 14 13 13 13 12 11 10 9 7 7
4 2 4 4 6 5 4 6 5 6 5 3 2 2 2 5 6 6 7 8 8 9 10 11 11 12 12 12 13 14 14 15 14 13 12 12 13 12 12 11 11 10 9 9
2 2 5 6 5 2 3 4 5 5 4 6 4 2 2 4 7 8 8 8 8 9 9 10 10 11 11 12 12 13 13 13 13 13 13 13 12 11 11 11 10 9 9 9
2 5 3 2 2 1 4 3 4 5 2 3 5 2 4 5 8 9 9 8 9 9 9 10 10 10 11 12 12 12 12 12 12 12 12 12 11 11 11 11 10 9 10 9
3 5 4 4 6 8 6 4 3 5 5 4 5 4 3 8 9 9 9 9 9 10 10 10 10 10 11 11 11 11 11 11 11 11 11 11 11 11 10 10 9 9 9 9
5 5 4 4 2 1 4 5 3 4 4 4 4 7 6 8 9 8 8 9 9 9 10 10 10 10 10 10 10 10 10 9 9 10 10 10 9 9 9 8 8 8 7 7
6 6 5 5 5 6 6 7 7 5 3 5 5 7 7 7 8 9 9 9 10 10 10 10 9 9 9 9 9 9 9 8 8 9 9 8 8 8 7 7 7 7 7 6
5 5 4 5 5 8 10 11 8 6 5 5 7 5 5 8 7 8 8 9 10 10 10 10 9 9 9 8 8 8 7 7 7 8 8 7 7 7 7 6 6 6 5 5
4 4 4 1 2 4 7 7 5 5 5 2 2 3 8 8 7 7 7 8 9 10 10 9 9 8 7 7 7 7 6 6 7 7 6 6 6 6 5 5 5 5 4 3
5 5 4 3 4 3 1 2 4 6 6 5 5 6 8 9 8 7 6 8 9 9 9 9 8 8 7 6 6 6 6 6 6 5 5 4 5 5 4 4 4 3 2 2
4 6 5 4 3 1 1 0 0 2 3 3 6 9 10 10 9 7 6 8 9 8 8 8 8 7 6 6 6 6 5 5 5 4 3 3 3 3 3 3 2 2 2 2
7 6 6 4 4 2 2 3 0 4 1 2 6 9 8 5 4 4 6 9 10 9 8 8 7 7 7 5 5 6 5 4 3 2 2 2 2 2 2 1 1 2 1 2
5 6 5 4 2 2 2 3 1 1 3 4 6 7 6 4 4 8 9 9 9 9 8 8 7 6 5 4 5 5 4 2 1 2 2 2 2 1 1 1 1 2 2 3
3 3 2 3 2 3 4 2 2 3 2 5 6 6 8 10 11 10 10 9 9 9 8 7 7 5 3 3 4 4 2 1 1 2 2 2 1 1 1 1 1 1 2 2
2 4 5 4 4 3 2 1 2 4 5 5 6 8 12 11 10 10 9 8 8 8 6 5 6 5 3 2 3 3 0 1 2 2 1 1 2 2 1 0 1 1 1 1
1 2 4 3 1 2 3 3 4 4 6 7 9 10 11 11 11 10 9 7 6 6 5 4 5 4 2 1 1 1 0 1 1 0 1 1 1 2 2 1 0 0 0 0
3 4 4 3 2 3 3 3 5 8 10 11 10 9 10 12 11 9 8 7 6 5 4 4 4 3 2 1 0 1 0 1 0 1 1 2 2 2 2 2 1 0 1 2
3 6 6 6 7 6 5 5 7 9 9 10 11 9 8 9 10 8 7 5 5 5 4 3 3 2 1 0 1 2 1 1 1 1 2 1 1 1 1 1 2 3 2 2
Wind_Direction
115 101 184 211 199 204 221 281 290 275 280 48 70 1 347 22 90 96 77 81 93 103 43 48 43 46 129 176 187 191 194 188 171 171 173 171 170 150 141 128 130 142 144 144
64 232 223 204 193 208 232 277 286 296 333 126 80 49 29 42 63 68 72 57 40 41 34 32 32 33 40 59 176 176 194 183 179 178 167 134 124 119 108 92 78 82 104 118
177 233 207 169 196 211 236 220 244 272 347 36 92 46 45 48 60 62 58 54 47 47 42 36 33 31 30 25 12 50 174 179 173 156 136 124 110 101 97 91 79 61 65 70
223 247 198 196 221 186 255 233 219 242 44 328 78 92 20 54 59 55 52 49 46 43 44 42 38 34 31 24 22 37 85 119 132 138 152 150 157 150 124 104 84 66 59 68
237 218 194 214 223 186 221 241 208 224 156 45 31 110 344 40 57 57 55 52 48 45 44 42 39 37 33 29 32 38 55 67 83 97 112 117 111 102 101 97 91 78 63 61
242 235 205 213 225 196 198 64 48 49 78 61 327 116 70 28 57 78 65 57 51 48 46 44 39 41 38 35 39 46 54 52 55 68 81 94 104 108 106 97 93 80 69 60
311 284 237 193 176 97 121 95 37 17 38 264 3 88 80 59 82 95 84 67 57 51 48 44 40 40 40 38 40 47 55 54 53 58 63 72 85 94 96 94 91 88 78 67
331 309 265 188 180 177 167 141 154 172 178 284 33 84 89 84 87 88 86 78 66 58 53 49 45 43 43 43 44 49 57 58 57 59 60 62 68 75 77 81 86 82 79 76
206 281 307 280 181 141 134 155 161 125 115 86 76 98 108 110 103 97 89 78 67 61 58 54 51 49 49 49 47 51 60 63 62 64 67 66 69 75 78 76 76 77 77 79
182 268 328 334 49 32 119 138 98 108 131 124 111 133 161 163 149 125 104 91 79 72 68 63 58 57 55 54 53 53 58 63 64 64 68 72 68 70 75 76 74 74 72 72
146 118 347 28 37 357 55 65 89 97 129 140 156 196 328 186 151 133 116 104 95 85 79 73 68 66 65 62 60 59 59 64 67 69 70 70 69 68 71 73 72 74 73 72
91 104 50 353 323 11 87 96 125 130 136 122 131 147 4 113 122 123 119 108 97 90 85 81 77 73 69 66 65 63 61 63 65 69 72 72 71 70 71 71 70 72 74 72
94 91 74 5 352 9 40 32 75 107 106 123 135 149 88 103 108 114 117 113 105 100 93 86 80 75 73 70 69 68 65 64 65 68 70 69 69 69 69 70 72 73 76 74
97 73 119 154 212 16 32 16 42 94 113 137 155 145 146 133 128 126 123 118 111 104 99 94 87 81 78 76 75 74 70 67 69 71 71 70 68 70 70 71 73 74 77 76
75 74 71 67 65 79 60 37 41 63 108 141 149 145 158 151 140 134 128 122 117 112 107 102 98 93 87 82 78 76 74 71 74 76 73 71 70 72 72 72 71 70 69 72
58 98 80 65 69 77 57 29 31 42 41 84 106 97 112 117 114 121 128 129 125 120 114 109 105 100 96 92 89 84 79 75 78 79 77 75 73 71 69 69 67 66 62 57
61 96 90 92 303 50 34 359 22 49 32 41 100 122 130 124 124 128 130 125 121 119 115 112 107 103 100 97 98 95 91 87 84 83 81 78 78 74 67 70 66 60 50 44
108 89 96 83 58 64 291 14 79 82 50 46 85 105 111 108 95 83 101 116 117 117 116 111 107 102 96 93 92 93 91 89 88 86 84 82 82 78 69 65 57 41 31 25
96 116 97 91 87 84 286 17 114 103 62 58 109 111 109 112 95 72 80 100 106 107 107 105 107 106 100 97 98 97 88 89 90 88 84 83 89 84 70 56 36 17 14 1
49 71 93 95 111 197 266 322 318 113 97 138 130 131 130 122 113 113 107 104 103 101 103 106 105 102 99 96 98 96 91 87 86 92 87 83 89 88 74 42 15 6 11 358
26 36 65 92 108 274 308 315 57 118 240 146 137 137 129 108 118 125 117 108 107 106 104 104 102 99 103 108 103 99 96 94 103 98 85 73 64 72 72 32 15 12 25 31
126 106 109 111 106 256 327 29 139 190 114 112 117 117 113 112 113 115 115 113 112 108 104 104 102 96 95 108 108 107 108 104 88 80 66 43 14 357 58 47 13 30 45 44
123 171 162 163 193 253 340 46 69 117 112 114 118 122 124 121 120 118 115 114 111 110 107 105 110 106 93 105 120 124 165 86 89 75 38 358 356 358 2 340 331 24 47 48
122 123 105 99 62 44 53 62 62 80 103 110 119 124 124 121 122 118 116 114 109 107 110 112 113 110 99 95 117 162 189 111 108 55 328 333 336 334 344 344 334 62 355 355
168 123 103 110 138 98 54 79 99 96 101 104 104 109 118 121 121 121 119 116 113 110 106 114 122 126 132 119 309 291 274 134 114 320 315 326 326 319 334 350 354 276 241 223
187 163 160 197 191 161 161 139 124 117 118 119 115 106 110 119 120 118 116 116 117 116 113 115 123 137 163 232 288 297 281 186 192 286 301 301 304 310 329 358 9 22 24 357